Salem, Oregon, United States (97301)
Lat: 44.94N, Lon: 123.03W
Wx Zone: ORZ007
Local Info
Past Weather Observations for Sunday, August 17, 2014

NOTE: This archive is for the closest National Weather Service station to Salem. Information may differ from the station used for current weather conditions.

Click here for Long-term Archive

Time Weather Temperature Dewpoint Humidity Pressure Winds Precip Visibility
23:56
Clear
66°F / 19°C 55°F / 13°C 68% 29.98 in
(1015 mb)
NNW 6.9 mph
(NNW 11 kph)
- 10SM
22:56
Clear
70°F / 21°C 55°F / 13°C 60% 30.01 in
(1016 mb)
N 5.8 mph
(N 9 kph)
- 10SM
21:56
Clear
72°F / 22°C 57°F / 14°C 61% 30.01 in
(1016 mb)
NNW 6.9 mph
(NNW 11 kph)
- 10SM
20:56
Clear
73°F / 23°C 57°F / 14°C 57% 30.01 in
(1016 mb)
NNW 11.5 mph
(NNW 19 kph)
- 10SM
19:56
Clear
79°F / 26°C 57°F / 14°C 48% 29.98 in
(1015 mb)
NNW 11.5 mph
(NNW 19 kph)
- 10SM
18:56
Clear
84°F / 29°C 57°F / 14°C 40% 29.95 in
(1014 mb)
N 13.8 mph
(N 22 kph)
- 10SM
17:56
Partly Cloudy
Cumulonimbus Clouds Observed
88°F / 31°C 54°F / 12°C 31% 29.95 in
(1014 mb)
N 12.7 mph
(N 20 kph)
- 10SM
16:56
Clear
90°F / 32°C 54°F / 12°C 29% 29.98 in
(1015 mb)
N 13.8 mph
(N 22 kph)
- 10SM
15:56
Partly Cloudy
Cumulonimbus Clouds Observed
91°F / 33°C 54°F / 12°C 28% 29.98 in
(1015 mb)
N 16.1 mph
(N 26 kph)
- 10SM
14:56
Partly Cloudy
Cumulonimbus Clouds Observed
91°F / 33°C 55°F / 13°C 30% 30.01 in
(1016 mb)
N 13.8 mph
(N 22 kph)
- 10SM
13:56
Clear
90°F / 32°C 57°F / 14°C 33% 30.04 in
(1017 mb)
NNE 17.3 mph
(NNE 28 kph)
- 10SM
12:56
Clear
84°F / 29°C 59°F / 15°C 43% 30.04 in
(1017 mb)
Variable 5.8 mph
(Variable 9 kph)
- 10SM
11:56
Clear
82°F / 28°C 59°F / 15°C 45% 30.06 in
(1018 mb)
NE 9.2 mph
(NE 15 kph)
- 10SM
10:56
Clear
81°F / 27°C 59°F / 15°C 48% 30.06 in
(1018 mb)
N 8.1 mph
(N 13 kph)
- 10SM
09:56
Clear
77°F / 25°C 61°F / 16°C 57% 30.09 in
(1019 mb)
NE 9.2 mph
(NE 15 kph)
- 10SM
08:56
Clear
73°F / 23°C 61°F / 16°C 65% 30.09 in
(1019 mb)
N 8.1 mph
(N 13 kph)
- 10SM
07:56
Clear
72°F / 22°C 61°F / 16°C 69% 30.09 in
(1019 mb)
NNE 8.1 mph
(NNE 13 kph)
- 10SM
06:56
Clear
70°F / 21°C 61°F / 16°C 73% 30.06 in
(1018 mb)
N 4.6 mph
(N 7 kph)
- 10SM
05:56
Clear
64°F / 18°C 59°F / 15°C 83% 30.06 in
(1018 mb)
NNW 3.5 mph
(NNW 6 kph)
- 10SM
04:56
Clear
66°F / 19°C 61°F / 16°C 83% 30.06 in
(1018 mb)
NNW 4.6 mph
(NNW 7 kph)
- 10SM
03:56
Clear
64°F / 18°C 59°F / 15°C 83% 30.06 in
(1018 mb)
NNW 5.8 mph
(NNW 9 kph)
- 10SM
02:56
Clear
68°F / 20°C 61°F / 16°C 78% 30.06 in
(1018 mb)
NNW 3.5 mph
(NNW 6 kph)
- 10SM
01:56
Clear
66°F / 19°C 61°F / 16°C 83% 30.04 in
(1017 mb)
NNW 5.8 mph
(NNW 9 kph)
- 10SM
00:56
Clear
70°F / 21°C 61°F / 16°C 73% 30.04 in
(1017 mb)
N 3.5 mph
(N 6 kph)
- 10SM
Time Weather Temperature Dewpoint Humidity Pressure Winds Precip Visibility


Weather for websites

WeatherForYou.com, LLC is not responsible for any damages or problems caused by this service. Current weather conditions are obtained from the closest station including government and personal stations which may have varying degrees of accuracy. Weather forecasts are derived from the NOAA NDFD. Like all things, this site belongs to Jesus Christ... He just trusts me to maintain it. If you have any questions or comments email webmaster@weatherforyou.com

Copyright © 2014, WeatherForYou.com LLC. All rights reserved.